Location: Buena Vista
(10.3685°N, 66.6058°W)
Time: 15:44:13
(UTC+00:00)

Daily predictions for brighter satellites

Satellite Brightness Start Highest point End
(mag) Time Altitude Azimuth Time Altitude Azimuth Time Altitude Azimuth
Gbstr 26 Del rocket 4.2 23:02:03 10° NNW 23:07:32 39° NE 23:12:03 10° ESE
Cosmos 1515 3.3 23:07:44 10° S 23:11:12 79° E 23:14:39 10° N
Cosmos 1076 Rocket 3.5 23:07:04 10° N 23:11:21 81° E 23:15:38 10° S
Cosmos 921 Rocket 3.0 23:07:45 10° S 23:12:11 81° E 23:16:39 10° NNE
SAR-Lupe-2 3.6 23:09:10 10° SSE 23:12:43 88° WSW 23:16:17 10° NNW
ATLAS 3B R/B 4.3 23:07:43 10° NNE 23:12:58 19° ENE 23:18:01 10° ESE
GPS 2-14 Rocket1 3.6 23:11:25 10° NW 23:14:07 27° NNE 23:16:48 10° ENE
CZ-4 R/B 3.3 23:18:17 10° E 23:18:58 10° ENE 23:19:39 10° ENE
Cosmos 1378 2.7 23:17:50 10° S 23:21:03 66° E 23:24:16 10° N
CZ-4B R/B 3.5 23:20:06 10° SSE 23:24:43 54° ENE 23:29:25 10° N
Cosmos 494 Rocket 4.0 23:22:13 10° SSW 23:27:19 86° W 23:32:25 10° NNE
Cosmos 2278 Rocket 2.7 23:22:43 10° NNW 23:28:16 61° WSW 23:33:48 10° S
ATLAS 5 CENTAUR R/B 4.1 23:23:50 10° NW 23:29:43 36° WSW 23:36:17 10° S
Centaur AC-119 4.3 23:26:52 10° S 23:30:20 25° SE 23:38:11 10° E
Cosmos 192 4.3 23:29:04 10° N 23:34:00 80° ENE 23:38:55 10° SSE
Radarsat Rocket 4.3 23:30:48 10° S 23:36:33 69° WSW 23:42:37 10° NNW
SJ-6B 3.8 23:35:03 19° ESE 23:36:39 25° ENE 23:39:43 10° NNE
Landsat 7 3.8 23:40:04 10° S 23:44:46 86° WSW 23:49:27 10° NNW
USA 290 2.7 23:43:06 10° N 23:46:07 39° ENE 23:46:55 32° ESE
Tsikada Rocket 4.0 23:41:18 10° S 23:47:19 56° E 23:53:21 10° NNE
Cosmos 1603 3.7 23:45:50 10° SSW 23:51:27 89° WNW 23:57:06 10° NNE
